Regional Weather Roundup
Issued by NWS

Home | Current Version | Previous Version | Graphics & Text | Print | Product List | Glossary On
Versions: 1 2 3 4 5 6 7 8 9 10 11 12 13 14 15 16 17 18 19 20 21 22 23 24 25 26 27 28 29 30 31 32 33 34 35 36 37 38 39 40 41 42 43 44 45 46 47 48 49 50
000
ASUS45 KBOU 211407
RWRCO

WEATHER ROUNDUP FOR COLORADO
NATIONAL WEATHER SERVICE DENVER/BOULDER CO
800 AM MDT MON JUL 21 2014

NOTE: "FAIR" INDICATES FEW OR NO CLOUDS BELOW 12000 FEET WITH NO
SIGNIFICANT WEATHER AND/OR OBSTRUCTIONS TO VISIBILITY.

COZ001>005-013-030-031-211500-
...NORTHWEST COLORADO...

CITY           SKY/WX    TMP DP  RH WIND       PRES   REMARKS
CRAIG          SUNNY     53  50  89 W5        30.25S
HAYDEN         SUNNY     61  45  55 SE9       30.28R
MEEKER         SUNNY     58  44  60 CALM      30.28R
MOUNT WERNER   SUNNY     59  27  29 SW14G20   30.58R
STEAMBOAT SPGS SUNNY     55  44  68 CALM      30.31R
WALDEN         SUNNY     55  43  62 SE5       30.37S
$$

COZ006>008-011-211500-
...WEST CENTRAL VALLEYS...

CITY           SKY/WX    TMP DP  RH WIND       PRES   REMARKS
GRAND JUNCTION SUNNY     74  45  35 SE10      30.16R
MONTROSE       MOSUNNY   66  44  45 S6        30.26R
EAGLE          MOSUNNY   55  46  71 CALM      30.37R
RIFLE          SUNNY     65  47  52 E3        30.24R
DELTA          MOSUNNY   68  47  46 NE7       30.23R
NUCLA          MOSUNNY   66  36  32 E7        30.29R
$$

COZ017>023-064>068-211500-
...SOUTHWEST COLORADO...

CITY           SKY/WX    TMP DP  RH WIND       PRES   REMARKS
DURANGO        PTSUNNY   65  43  44 CALM      30.33R
CORTEZ         SUNNY     62  42  47 CALM      30.29R
PAGOSA SPRINGS PTSUNNY   58  50  73 CALM      30.41R
TELLURIDE      MOSUNNY   59  34  38 SE5       30.51R
WOLF CREEK PAS NOT AVBL
$$

COZ009-010-012-014-032>034-037-058>063-211500-
...CENTRAL COLORADO...

CITY           SKY/WX    TMP DP  RH WIND       PRES   REMARKS
ASPEN          MOSUNNY   54  45  71 CALM      30.40R
BUENA VISTA    PTSUNNY   57  44  61 MISG      30.43R
COPPER MTN     MOSUNNY   54  30  40 SW10G20   30.71R
BERTHOUD PASS  FAIR      46  34  61 NW16G29   30.73R
COTTONWOOD PAS PTSUNNY   63  37  39 CALM      30.56R
GUNNISON       MOSUNNY   50  43  76 CALM      30.48R
KREMMLING      SUNNY     50  43  76 CALM      30.41R
LEADVILLE      MOSUNNY   46  44  93 NE3       30.55R
MONARCH PASS   PTSUNNY   50  36  57 W18       30.81R
SALIDA         PTSUNNY  N/A N/A N/A CALM      30.48R
SUNLIGHT       SUNNY     55  41  58 CALM      30.62R
WILKERSON PASS NOT AVBL
$$

COZ069>075-211500-
...SAN LUIS VALLEY/SANGRE DE CRISTO MOUNTAINS...

CITY           SKY/WX    TMP DP  RH WIND       PRES   REMARKS
ALAMOSA        PTSUNNY   62  52  69 CALM      30.40R
LA VETA PASS   CLOUDY    55  41  58 SW12G22   30.55R
SAGUACHE       PTSUNNY   57  43  58 NW10      30.44R
$$

COZ035-036-038>040-211500-
...NORTHERN COLORADO FRONT RANGE...

CITY           SKY/WX    TMP DP  RH WIND       PRES   REMARKS
DENVER INTL AP PTSUNNY   75  46  35 SW12      30.14R
DMNS CITY PARK   N/A     76  49  38 S7        30.14S
AURORA         PTSUNNY   72  50  45 S9        30.18R
FRONT RANGE AP NOT AVBL
ERIE MUNI ARPT PTSUNNY   80  45  29 S6        30.12R
BOULDER MUN AP PTSUNNY   81  45  28 SW6       30.13R
CENTENNIAL     PTSUNNY   77  44  30 SW10      30.19R
BROOMFIELD     PTSUNNY   77  48  36 SE3       30.17R
FORT COLLINS   PTSUNNY   75  52  43 CALM      30.12R
LONGMONT       PTSUNNY   76  55  47 CALM      30.13R
$$

COZ041-046-047-076>085-087-088-211500-
...PIKES PEAK/PALMER DIVIDE AND SOUTHERN FOOTHILLS...

CITY           SKY/WX    TMP DP  RH WIND       PRES   REMARKS
COLO. SPRINGS  PTSUNNY   72  51  47 N5        30.23R
A. F. ACADEMY  CLOUDY    75  45  34 NW13G18   30.25R
ELLICOTT       PTSUNNY   69  52  54 CALM      30.21R
FALCON         PTSUNNY   74  44  33 NW3       30.28R
FORT CARSON    PTSUNNY   69  49  47 N5        30.19R
LIMON          PTSUNNY   74  48  39 NW7       30.15R
MONUMENT HILL  PTSUNNY   72  43  35 W7        30.29R
TRINIDAD       PTSUNNY   76  50  40 W10       30.20R
$$

COZ042>045-048>051-090-091-211500-
...NORTHEAST COLORADO...

CITY           SKY/WX    TMP DP  RH WIND       PRES   REMARKS
GREELEY ARPT   MOSUNNY   64  54  68 CALM      30.11R
AKRON          PTSUNNY   75  48  38 W14       30.08R
BURLINGTON     PTSUNNY   77  64  64 W7        30.05R
WRAY             N/A     76  54  45 W7        30.01R
STERLING       PTSUNNY   73  61  64 SW3       30.03R
HOLYOKE        CLOUDY    79  59  50 W6        30.00R
FORT MORGAN    PTSUNNY   68  52  56 W5        30.09R
$$

COZ086-089-092>099-211500-
...SOUTHEAST COLORADO...

CITY           SKY/WX    TMP DP  RH WIND       PRES   REMARKS
PUEBLO         PTSUNNY   73  53  49 W3        30.11R
LA JUNTA       SUNNY     75  57  53 W12       30.06R
LAMAR          MOSUNNY   77  58  51 W7        30.01R
SPRINGFIELD      N/A     77  63  61 SW12      30.08R
$$



USA.gov is the U.S. government's official web portal to all federal, state and local government web resources and services.